Content
SEND FEEDBACK

Daily
Averages
Monthly
Summary
Germany

TORGAU, GERMANY


Home > Europe > Germany
Elevation: 80 meters     Latitude: 51 36N     Longitude: 013 00E

WEATHER
 
SELECT A DAY
Number of Records: 42,428;   Date Range: 3/9/98 - 8/26/14
 
SHARE

PRINT THIS DATA

[ ← Previous Day ]
WEATHER ALMANAC - 23 JANUARY, 2013
[ Next Day → ]
[ °F ]   °C
Weather ElementAverageHighLow
Temperature-7.3 °C-7 °C (8:20 am)-8 °C (1:20 am)
Dewpoint-9.5 °C-9 °C (3:20 am)-10 °C (1:20 am)
Humidity85.1 %93 % (3:20 am)80 % (8:20 am)
Barometer1010.2 hPa1011.2 hPa (9:20 pm)1009.1 hPa (1:20 am)
Wind Speed2.9 km/h5.6 km/h (4:20 pm)
Weather ElementAverage
Visibility7.7 km
Wind DirectionSSE (140.9 °)

Weather ElementTotal
Precipitation---
Heating Degree Days25.8 (Base 18.3)
Averaged from 23 records on 23 January, 2013
WEATHER CONDITIONS BREAKOUT
WIND DIRECTION BREAKOUT
WEATHER BY HOUR - 23 JANUARY, 2013
[ °F ]   °C
Local TimeTemperatureDewpointHumidityBarometerVisibilityWind DirectionWind SpeedGust SpeedPrecipitationEventsConditions
1:20 AM-8 °C-10 °C86 %1009.1 hPa9 kmNNE (30°)3.7 km/hOvercast
2:20 AM-8 °C-10 °C86 %1009.1 hPa9 kmNNE (30°)3.7 km/hMostly Cloudy
3:20 AM-8 °C-9 °C93 %1009.1 hPa9 kmNE (50°)3.7 km/hMostly Cloudy
4:20 AM-8 °C-9 °C93 %1009.1 hPa9 kmNE (50°)3.7 km/hMostly Cloudy
5:20 AM-8 °C-10 °C86 %1009.1 hPa9 kmENE (60°)3.7 km/hMostly Cloudy
6:20 AM-8 °C-9 °C93 %1009.1 hPa9 kmEast (90°)3.7 km/hMostly Cloudy
7:20 AM-8 °C-10 °C86 %1010.2 hPa6.9 kmSSE (150°)3.7 km/hMostly Cloudy
8:20 AM-7 °C-10 °C80 %1010.2 hPa6.9 kmNorth (10°)1.9 km/hMostly Cloudy
9:20 AM-7 °C-9 °C86 %1010.2 hPa6.9 kmNNW (330°)1.9 km/hMostly Cloudy
10:20 AM-7 °C-10 °C80 %1010.2 hPa6.9 kmEast (80°)1.9 km/hMostly Cloudy
11:20 AM-7 °C-10 °C80 %1010.2 hPa8 kmSSE (160°)1.9 km/hMostly Cloudy
12:20 PM-7 °C-10 °C80 %1010.2 hPa8 kmVariable1.9 km/hMostly Cloudy
1:20 PM-7 °C-10 °C80 %1010.2 hPa8 kmSW (230°)1.9 km/hMostly Cloudy
2:20 PM-7 °C-10 °C80 %1010.2 hPa8 kmVariable1.9 km/hMostly Cloudy
3:20 PM-7 °C-10 °C80 %1010.2 hPa8 kmNorth (360°)3.7 km/hOvercast
4:20 PM-7 °C-9 °C86 %1010.2 hPa8 kmNorth (360°)5.6 km/hOvercast
5:20 PM-7 °C-9 °C86 %1010.2 hPa6.9 kmENE (60°)3.7 km/hMostly Cloudy
6:20 PM-7 °C-9 °C86 %1010.2 hPa6.9 kmENE (60°)1.9 km/hMostly Cloudy
7:20 PM-7 °C-9 °C86 %1010.2 hPa6.9 kmVariable1.9 km/hMostly Cloudy
8:20 PM-7 °C-9 °C86 %1010.2 hPa6.9 kmSSW (200°)1.9 km/hMostly Cloudy
9:20 PM-7 °C-9 °C86 %1011.2 hPa6.9 kmWSW (250°)1.9 km/hMostly Cloudy
10:20 PM-7 °C-9 °C86 %1011.2 hPa6.9 kmNW (320°)3.7 km/hMostly Cloudy
11:20 PM-7 °C-9 °C86 %1011.2 hPa6.9 kmNorth (360°)1.9 km/hMostly Cloudy
Hourly data recorded from ETSH, located 0 kilometers away from Torgau, Germany







STORIES FROM OUR PARTNERS